Theta_e
322 319 318 318 316 315 310 304 293 294 293 286 285 288 288 296 296 292 291 293 290 293 294 295 293 294 291 289 290 289 290 285 287 283 281 291 297 299 297 297 298 298 298 296 297 297 299 312 311 314 316 316 317 317 316 316 316 316 317 317 316 317 317 317 316 316 317 317 317 316 316 316 316 316 316 316 317 316 317 317 317 318 318 318 318 318 317 317 318 318 318 318 319 319 318 318 318
320 319 316 317 315 309 303 301 292 288 289 287 288 290 291 294 293 290 290 291 293 293 294 294 293 293 293 291 290 290 287 290 291 289 292 298 297 297 298 300 300 299 296 297 297 297 300 303 311 312 314 317 316 316 316 316 315 315 315 316 316 316 316 316 316 316 316 316 316 315 315 315 315 315 315 315 315 315 315 315 316 316 316 316 317 317 317 317 317 316 316 316 317 317 317 316 316
319 317 315 313 310 307 302 300 288 282 284 284 287 290 296 290 290 291 293 293 294 295 295 293 293 292 291 291 286 285 282 292 292 292 292 295 292 291 295 297 298 298 297 297 298 299 301 305 309 311 313 314 315 316 316 315 315 315 315 315 315 315 315 316 316 315 315 315 315 314 314 315 314 314 314 313 313 313 313 314 314 314 314 314 315 315 315 316 316 315 314 313 315 316 316 316 315
315 316 314 309 303 303 294 291 288 283 284 285 284 291 290 290 291 293 295 296 295 294 294 293 288 291 288 284 286 288 287 287 291 291 289 290 289 292 294 297 301 295 298 299 299 299 303 309 309 310 311 313 314 315 315 316 315 315 316 315 315 315 315 314 314 314 314 314 314 314 314 314 314 313 313 312 312 313 312 312 313 312 313 313 314 314 314 314 314 314 313 312 314 314 315 315 314
314 313 313 306 301 296 293 289 286 284 285 283 283 290 292 292 292 294 296 296 296 295 294 291 288 291 290 288 290 284 285 291 292 294 291 293 295 294 296 301 294 296 298 298 300 299 301 308 309 309 310 312 313 314 315 314 316 316 315 314 314 314 314 314 315 314 315 315 314 314 314 313 313 312 312 313 313 312 312 312 312 312 312 313 313 314 314 314 313 313 313 313 313 313 314 314 313
312 310 311 308 298 300 294 288 287 287 287 289 287 289 292 294 294 294 295 295 294 293 293 290 289 288 286 288 290 285 291 286 292 292 293 292 297 296 298 299 294 295 297 298 299 299 301 308 308 309 310 311 312 312 314 314 313 314 314 313 313 313 314 314 314 314 314 315 313 313 314 312 312 311 311 312 312 312 312 312 311 311 311 312 312 311 313 313 313 313 312 312 312 312 313 312 311
315 304 304 303 300 298 288 287 286 288 290 292 289 291 292 293 295 294 294 294 293 293 292 288 289 288 285 288 290 291 292 294 292 292 294 296 297 297 298 294 294 294 297 298 299 300 303 307 308 309 309 310 312 312 312 314 313 313 314 313 314 314 314 314 313 314 314 313 314 314 314 312 312 310 311 312 312 312 311 311 311 310 311 311 311 311 312 312 312 312 312 312 311 312 312 311 310
310 301 299 295 290 291 287 287 288 286 289 292 293 292 293 295 294 294 292 290 290 289 290 290 291 287 286 291 284 290 293 294 294 295 296 295 296 296 298 293 292 294 295 296 299 304 311 307 307 308 308 309 311 311 311 313 313 313 312 312 313 313 313 313 313 313 313 312 312 313 313 312 311 310 311 310 311 311 311 310 310 310 311 310 310 310 310 310 309 310 311 311 311 311 311 310 310
306 303 301 296 288 288 286 286 287 290 290 292 293 296 299 295 295 293 291 292 291 289 288 288 290 284 285 285 284 289 291 293 295 299 298 296 296 296 297 293 293 294 295 295 298 299 301 306 307 308 308 308 310 310 310 311 312 311 312 313 312 312 312 312 312 313 312 312 309 311 310 311 309 310 309 309 308 309 310 309 310 310 311 310 309 310 309 309 309 310 310 310 310 310 310 310 309
301 299 291 290 289 286 286 283 284 288 290 292 292 293 293 294 294 293 291 289 290 289 289 289 288 284 286 283 285 288 290 294 295 295 295 296 295 297 297 295 296 294 295 296 297 299 300 308 308 308 307 308 309 309 310 310 312 310 311 311 311 311 312 311 312 312 311 310 308 308 308 308 307 308 307 307 308 309 309 308 309 310 310 310 310 309 309 309 309 309 310 310 310 310 310 309 309
294 298 296 289 285 284 284 283 286 289 290 291 292 294 293 293 293 289 289 288 290 289 290 290 287 286 284 284 285 288 292 295 293 292 293 295 296 297 293 296 296 294 295 297 297 298 301 300 310 309 307 307 308 308 309 310 310 310 310 310 312 311 312 311 311 310 309 308 306 306 307 306 306 306 305 305 306 307 308 307 308 309 309 309 309 309 308 308 308 308 309 309 309 309 308 308 308
292 291 293 286 283 283 284 285 286 288 290 289 291 292 293 292 291 288 289 288 288 287 287 289 288 286 284 284 285 288 289 292 292 292 292 295 295 296 294 294 297 296 295 296 298 296 297 298 298 308 309 308 308 308 309 310 310 309 309 309 310 310 310 309 309 308 307 306 304 305 305 304 304 304 303 304 304 305 306 306 307 308 308 308 308 308 307 307 308 308 308 308 308 307 307 306 307
296 295 291 287 284 287 286 286 285 288 284 289 291 292 292 290 289 289 289 288 288 287 287 288 290 287 283 283 286 287 290 290 291 292 294 294 293 295 295 295 297 297 300 298 295 295 296 295 297 298 305 308 307 307 309 309 308 308 308 309 309 309 308 308 306 306 305 304 303 303 303 302 302 302 302 302 302 303 304 304 305 307 307 307 306 307 306 307 307 307 307 307 306 306 306 304 305
295 291 290 286 286 287 286 283 285 283 285 290 292 292 290 289 289 290 289 287 287 286 290 290 288 286 284 284 284 284 284 288 291 293 292 293 294 294 295 295 295 294 296 295 294 295 294 295 296 297 295 296 296 301 306 309 307 307 307 307 307 307 306 305 304 303 302 302 301 301 301 300 299 300 300 300 300 301 301 301 302 305 306 306 305 306 306 306 306 306 306 305 305 304 303 302 303
297 292 289 286 285 283 286 283 285 282 284 290 293 289 287 290 288 289 289 287 287 292 294 292 291 286 280 282 280 284 287 288 290 294 294 294 295 295 295 294 295 294 293 294 294 294 294 294 295 295 297 295 295 296 296 302 307 306 306 306 306 305 304 303 301 300 300 300 299 299 299 297 297 297 298 298 299 299 299 299 299 302 304 304 304 304 304 305 304 304 304 303 303 302 300 300 300
296 293 288 285 284 283 286 286 285 285 286 290 290 287 287 288 288 286 288 288 288 287 289 287 288 287 286 284 285 287 288 289 293 295 294 293 293 293 293 293 293 294 294 294 292 294 294 293 294 294 295 294 295 296 296 297 305 305 305 305 304 303 302 300 299 298 297 297 297 297 296 292 292 291 297 293 296 296 297 295 297 298 300 302 301 302 303 303 303 303 303 302 301 299 298 297 298
296 294 288 283 283 285 285 285 284 281 287 289 289 287 284 285 287 287 288 286 285 286 286 287 288 288 286 287 288 289 290 296 298 293 293 292 291 290 291 291 293 291 294 293 293 293 293 293 293 294 295 295 295 297 296 296 302 301 300 303 302 301 299 298 297 295 294 294 294 294 292 289 287 287 288 290 293 290 294 295 296 296 297 299 299 299 299 301 300 301 301 299 299 297 295 294 294
293 288 285 284 282 284 287 287 285 288 288 288 287 286 285 282 285 287 286 285 284 284 285 286 287 288 289 290 289 290 291 291 292 292 291 290 289 289 289 290 289 291 290 293 292 293 292 292 293 294 294 294 295 297 297 297 296 298 294 294 297 296 296 294 292 289 291 287 292 289 287 288 286 286 288 292 289 290 290 294 294 294 295 297 297 297 297 298 298 298 298 297 297 295 293 284 286
289 284 285 284 283 288 289 289 289 289 288 289 286 285 284 284 283 286 283 283 284 283 284 285 286 287 288 289 290 290 291 291 291 290 290 290 289 289 289 290 290 290 290 290 291 292 292 292 294 294 293 293 295 295 296 297 294 294 293 293 294 295 293 291 288 288 285 286 287 287 288 286 286 285 287 289 289 291 289 292 292 292 293 294 294 294 294 295 295 295 295 295 294 292 284 283 283
290 287 284 284 288 289 291 292 291 290 289 285 285 286 284 285 285 287 284 280 283 282 282 283 283 285 286 288 290 290 291 291 291 290 291 291 291 290 290 291 290 290 291 291 292 295 292 293 292 294 294 293 294 296 296 294 293 293 293 292 292 290 288 289 287 286 286 285 286 287 286 286 285 284 288 289 289 286 285 289 290 289 290 290 292 288 290 291 292 291 292 292 288 286 282 283 283
289 287 281 286 288 287 289 290 290 288 288 285 285 285 285 285 286 286 282 282 281 281 283 283 283 284 286 287 288 290 290 290 291 291 290 291 292 291 289 289 289 290 291 291 293 293 291 292 293 293 293 293 293 294 295 295 293 293 293 292 290 289 287 286 286 286 285 285 285 287 286 285 284 283 283 283 283 284 283 283 283 282 282 282 289 282 283 283 284 282 282 284 282 282 282 282 282
287 284 286 287 287 287 289 288 287 287 286 285 283 284 285 287 286 283 283 279 277 281 283 285 285 286 286 286 287 288 289 290 290 290 290 290 290 290 291 290 290 290 295 290 290 291 292 292 293 293 293 292 292 293 294 297 294 292 292 292 289 287 287 286 285 285 285 285 285 287 286 283 283 283 283 283 283 283 283 282 282 282 281 282 284 282 282 282 281 281 281 281 281 282 282 282 282
286 286 286 286 287 287 288 287 287 286 284 283 284 285 286 284 284 283 282 281 282 283 284 286 286 287 287 287 286 288 288 288 289 289 290 290 290 291 290 289 289 289 290 289 291 292 291 292 292 293 293 293 292 293 293 293 291 291 290 292 289 286 286 285 285 285 285 284 284 286 285 283 282 282 282 282 282 282 282 282 281 281 281 281 283 282 281 281 281 280 280 281 281 281 281 281 282
289 284 286 286 286 286 286 286 285 284 284 285 285 286 285 284 284 285 284 284 284 287 285 285 285 286 286 286 286 287 288 288 289 290 290 290 290 291 290 291 289 288 289 290 290 291 293 291 292 293 293 292 291 292 292 291 290 289 291 291 289 291 286 285 284 285 285 284 285 284 287 282 282 281 281 281 282 282 281 281 281 281 281 281 282 282 281 280 280 280 280 280 280 280 280 281 282
286 285 287 286 286 286 284 284 284 284 285 284 285 286 284 282 285 284 283 283 285 286 285 285 285 285 284 285 286 286 286 287 288 289 291 288 290 292 291 290 288 289 289 289 290 291 291 293 293 292 292 292 291 292 291 290 289 288 287 287 288 290 285 284 285 285 283 284 283 283 286 282 281 281 281 281 281 281 281 281 281 280 280 281 281 281 280 279 279 279 280 280 280 280 280 280 282
286 286 285 286 286 285 284 284 283 284 286 284 285 283 283 283 286 284 283 284 284 286 285 285 285 285 285 285 285 285 285 287 288 288 290 290 290 290 291 289 288 289 290 290 289 290 290 292 293 293 292 292 292 292 290 290 288 287 287 287 287 288 284 285 284 283 283 282 282 282 284 284 281 281 281 281 281 280 280 280 280 280 280 281 281 280 280 280 279 279 279 279 279 279 279 280 281
286 286 286 286 285 286 285 284 285 285 286 285 284 283 283 284 285 280 284 284 285 285 285 285 284 284 285 285 286 285 285 286 288 289 290 289 289 289 290 289 288 289 290 289 290 291 295 292 292 293 294 295 291 292 292 289 288 287 289 285 286 285 285 285 283 283 283 282 282 282 283 284 282 281 280 281 281 280 280 280 279 280 279 280 281 280 280 280 279 279 279 279 279 279 279 280 280
287 286 285 284 284 284 285 283 285 286 286 282 283 283 283 284 285 280 282 284 284 284 284 284 283 283 284 285 285 285 285 286 287 288 289 288 288 288 288 288 288 289 289 289 290 290 291 292 292 293 292 294 293 291 293 290 287 288 287 285 285 286 286 283 282 282 284 282 282 282 282 282 283 281 280 280 281 279 279 279 279 279 279 280 281 280 279 279 279 279 279 279 279 279 279 279 280
286 286 283 283 282 284 285 285 285 285 285 285 284 283 281 282 281 283 282 284 284 283 283 283 283 284 283 283 284 284 286 286 286 287 289 289 289 290 288 288 290 290 289 290 291 292 291 291 292 291 291 291 291 291 290 289 287 287 287 285 287 286 284 282 281 281 281 282 282 282 282 283 282 280 280 280 282 279 279 278 278 280 279 280 280 280 279 279 278 278 278 279 279 279 278 278 280
286 283 283 281 277 278 285 285 285 285 286 283 285 278 276 277 282 282 284 284 284 283 282 283 282 283 283 283 283 284 285 287 286 288 288 288 288 288 288 288 291 290 290 289 290 292 293 294 295 294 293 293 293 292 291 289 288 288 288 286 287 284 283 282 283 280 283 281 281 281 282 283 281 280 280 279 280 279 278 278 278 278 279 279 280 279 278 278 277 277 278 278 279 278 277 278 278
280 283 280 277 273 279 284 284 283 285 285 283 285 278 275 276 279 282 284 284 284 283 282 282 282 283 283 283 283 285 286 286 289 289 288 288 288 287 288 288 289 291 291 289 291 291 293 293 295 294 293 290 290 288 287 289 288 286 285 284 284 283 283 281 280 280 280 281 281 280 282 283 281 280 280 279 279 279 278 278 278 278 279 279 279 278 278 278 277 277 278 277 277 277 277 278 277
280 278 278 275 274 280 281 283 283 282 284 283 281 277 279 279 281 282 283 283 283 282 282 282 282 282 282 282 284 284 286 286 287 288 288 288 288 288 288 289 290 290 290 290 292 291 292 292 292 291 290 289 289 290 286 286 286 287 287 287 283 283 282 281 280 280 281 280 280 280 281 283 280 279 280 279 279 278 278 277 277 278 279 278 278 277 278 277 277 277 277 277 275 276 277 276 277
277 275 279 280 276 279 279 285 283 284 284 284 283 280 278 282 282 282 283 283 282 281 281 281 282 282 282 283 283 284 285 285 287 288 289 288 288 288 288 289 290 290 290 291 291 290 291 293 292 290 289 288 287 287 286 285 285 285 284 284 283 282 281 280 280 280 280 280 280 279 280 283 279 279 279 279 279 279 277 277 277 278 279 277 277 277 277 278 276 276 276 278 276 275 275 275 276
279 276 277 279 279 278 278 280 285 281 284 282 281 280 278 282 280 280 283 283 281 281 282 282 282 281 282 282 283 285 284 286 287 288 289 288 288 288 288 292 290 290 291 291 291 291 291 290 289 289 289 289 288 287 286 285 285 284 284 285 286 282 281 281 281 280 280 279 279 279 280 281 282 279 278 279 278 280 278 277 277 277 278 277 277 276 276 277 276 276 275 276 277 276 275 275 275
280 278 277 279 277 278 280 278 282 282 280 281 279 280 280 281 281 280 283 282 282 282 283 282 281 281 281 283 283 283 284 285 287 288 288 288 289 289 289 289 289 289 290 290 290 290 290 291 291 290 287 287 286 287 288 285 284 284 282 283 282 281 281 281 280 280 280 280 279 279 280 280 282 279 279 279 278 278 277 277 277 277 277 277 276 276 276 277 277 276 275 276 276 276 276 275 275
281 276 279 276 277 279 279 281 282 283 280 279 279 280 281 282 281 281 282 282 282 283 281 281 282 281 282 283 283 284 285 286 287 288 289 288 288 289 288 288 288 288 290 291 291 290 290 288 287 287 287 287 287 285 284 283 283 285 282 282 282 283 282 284 281 280 280 279 281 279 279 279 279 281 278 278 277 278 276 276 276 276 276 276 276 275 275 275 275 275 275 276 275 276 276 276 276
280 278 276 277 276 279 280 280 282 282 281 279 279 278 276 278 281 281 281 282 281 281 281 282 282 282 283 282 284 284 285 286 288 289 289 288 289 288 288 288 287 288 289 290 290 289 288 288 287 286 286 287 286 284 284 282 282 281 281 281 280 281 282 282 281 280 280 280 279 279 279 279 278 279 279 278 276 278 277 276 276 276 276 277 276 275 275 275 276 275 275 276 276 274 274 276 276
279 277 278 278 278 280 280 282 282 281 282 279 277 278 278 280 280 280 281 281 282 282 282 282 282 280 282 284 284 285 286 288 289 289 290 288 288 288 288 288 289 288 288 289 289 289 288 287 286 285 286 286 285 284 285 283 283 281 281 280 279 280 280 279 280 279 280 282 280 279 279 278 277 278 280 278 278 276 276 275 275 275 275 276 277 276 276 277 275 275 275 274 275 274 274 275 275
278 279 277 277 278 278 280 280 280 281 283 278 276 279 279 279 280 280 281 283 280 282 283 283 283 281 283 283 284 285 286 287 287 287 288 288 288 288 288 288 287 288 288 288 288 288 287 286 285 286 285 285 286 288 283 283 283 283 281 282 280 280 281 282 280 282 281 278 278 279 279 277 277 277 277 279 277 276 275 275 275 275 275 277 275 274 274 274 274 274 274 274 273 275 275 276 275
279 277 277 279 277 278 278 277 278 283 281 281 279 279 280 278 279 280 280 281 281 282 282 282 282 283 284 285 285 286 286 286 286 287 288 287 287 288 287 287 287 287 289 288 287 287 287 288 285 284 285 285 284 288 289 285 285 283 283 282 281 281 280 282 279 279 279 277 278 278 278 277 277 276 276 278 277 276 275 275 275 274 275 276 275 274 274 274 274 274 274 275 274 273 273 273 276
277 278 276 277 278 279 278 278 280 279 282 280 277 278 276 278 283 281 282 282 282 284 285 284 285 283 285 285 285 285 287 286 286 286 286 287 288 288 289 289 287 288 288 288 288 288 288 286 285 284 284 284 284 286 283 285 283 281 281 281 281 280 279 277 277 277 278 281 278 277 277 277 277 277 276 276 278 276 275 275 275 275 275 275 276 274 273 274 274 274 274 274 273 273 272 273 274
278 280 279 279 278 279 278 278 278 273 277 279 279 273 274 275 276 278 279 280 283 282 283 283 285 285 285 284 285 284 285 285 287 286 287 287 288 288 287 288 287 287 288 289 289 288 287 285 284 283 283 283 282 283 285 283 283 280 280 279 277 276 276 276 275 276 276 276 276 278 278 277 277 276 276 276 277 278 275 275 275 275 275 275 276 274 274 274 274 274 275 274 273 274 273 273 273
276 280 279 279 279 279 278 278 279 276 277 280 278 276 273 273 280 280 279 281 281 280 281 281 281 283 283 284 285 285 286 285 284 285 285 285 287 287 287 287 288 287 289 288 287 287 285 285 284 283 283 282 283 282 284 284 280 280 279 278 277 276 276 277 276 277 276 277 277 276 276 277 276 276 276 275 275 277 276 275 275 275 275 275 277 274 274 274 274 274 276 274 274 276 274 272 273
281 279 279 279 280 281 279 277 278 279 278 282 277 275 274 273 274 277 276 280 280 281 282 282 282 282 284 284 285 284 285 284 286 286 286 286 287 288 288 289 288 289 288 287 287 286 285 285 284 283 284 286 283 282 282 284 280 279 279 278 279 276 276 276 277 276 277 279 275 276 276 276 276 276 275 275 275 277 277 275 275 275 275 275 277 274 274 274 275 275 276 274 275 275 274 273 274
281 280 281 280 280 279 278 278 278 278 279 276 274 278 277 272 275 277 279 281 280 281 282 282 283 282 283 284 285 285 285 285 285 286 285 286 286 287 288 288 288 287 287 287 287 286 285 284 284 284 284 284 282 283 282 282 283 279 278 278 279 279 278 278 279 279 276 276 275 275 275 275 276 276 275 275 275 275 278 277 275 274 275 275 278 275 274 274 274 274 274 274 274 274 274 276 274
282 281 281 279 280 279 279 277 278 276 275 273 277 277 274 274 273 278 277 279 278 280 282 283 283 284 284 285 284 285 285 284 284 285 286 286 286 286 287 288 287 288 287 288 286 285 284 284 284 283 282 282 282 282 281 281 282 282 278 277 276 277 278 276 275 275 275 275 275 274 275 275 275 275 275 275 275 275 275 276 275 275 275 277 277 274 274 274 274 274 274 274 274 273 274 274 275
282 281 281 280 278 277 276 276 276 274 272 273 277 276 277 273 275 279 279 279 279 280 279 280 280 281 283 283 284 286 285 285 285 285 285 285 285 285 286 288 288 286 285 286 286 285 283 283 283 281 281 281 282 281 280 279 279 278 278 277 276 275 276 275 275 275 274 274 274 274 274 275 275 275 275 275 275 275 276 277 276 275 276 276 276 274 274 274 274 274 274 274 274 273 273 274 276
282 280 280 279 281 275 277 269 270 272 267 271 276 276 276 272 275 277 279 277 277 281 282 284 283 284 285 284 284 285 285 285 286 284 284 284 286 286 286 287 287 287 286 285 285 284 283 283 282 281 280 281 281 280 280 279 279 278 277 277 276 276 276 276 275 274 274 274 274 274 274 274 274 275 274 274 274 274 276 275 275 274 275 274 274 274 274 274 274 274 274 274 274 274 274 275 275
279 277 277 276 271 270 274 265 276 271 272 278 275 277 274 274 277 278 276 280 279 280 283 284 284 284 284 284 284 284 284 284 285 285 284 284 286 286 286 286 285 286 287 286 285 284 283 282 282 281 281 280 280 280 280 279 278 278 277 277 276 277 276 275 275 274 274 274 274 274 274 274 274 274 274 274 274 274 276 274 275 274 274 274 275 275 275 274 274 274 274 273 274 273 273 273 274
277 277 275 270 267 262 266 261 265 269 274 277 276 276 276 276 279 279 282 282 281 282 281 282 284 284 284 284 284 283 283 284 285 285 285 285 286 286 287 287 288 288 287 286 285 285 284 283 281 281 281 280 280 279 279 279 278 278 277 276 276 278 275 275 275 275 274 274 275 274 274 274 274 273 273 274 274 275 275 275 275 274 275 274 275 275 275 275 275 274 274 273 273 274 274 273 274
280 278 278 278 267 272 271 268 274 272 274 275 275 274 272 277 281 282 281 280 279 278 279 279 280 281 282 282 282 281 282 283 284 284 285 286 286 287 287 287 288 288 287 287 286 285 284 283 281 282 280 280 280 280 279 278 278 277 277 276 276 276 277 275 275 276 275 274 274 274 274 274 274 274 274 274 276 275 275 275 275 275 274 274 274 274 275 274 274 274 275 274 274 274 274 275 275
278 278 277 275 277 273 275 268 267 266 268 270 272 274 275 281 282 281 277 279 281 282 282 283 283 282 282 283 283 284 284 285 284 284 285 285 286 286 286 286 287 288 288 287 286 286 284 284 282 282 281 280 280 280 279 278 278 277 276 276 276 278 279 278 279 279 275 275 275 274 274 274 274 274 274 275 274 275 274 274 275 274 274 274 274 274 274 274 274 274 274 273 273 276 274 274 275
281 280 274 278 278 274 269 270 270 269 268 269 271 277 276 279 282 281 278 281 282 281 281 281 282 282 281 283 284 284 285 284 284 285 286 286 285 285 286 287 287 287 287 287 288 287 286 285 283 282 281 280 280 281 279 278 278 277 276 276 276 277 277 275 276 275 275 275 275 275 274 274 274 274 275 276 274 274 273 274 274 274 274 274 273 274 274 274 274 273 273 273 273 273 275 274 275
280 276 279 280 277 273 275 274 264 262 268 271 272 275 276 278 278 279 280 279 280 279 280 280 280 279 281 284 284 285 285 286 285 285 286 286 287 287 287 287 287 288 288 288 288 288 287 286 284 282 281 280 279 280 279 278 278 277 277 276 276 276 276 275 275 275 275 275 275 275 275 275 274 275 276 276 275 273 273 276 273 273 273 273 273 273 273 273 273 273 273 273 273 274 274 274 275
282 279 282 282 274 277 273 268 270 269 266 268 273 273 275 276 280 278 279 279 282 282 281 279 282 282 283 284 284 284 284 284 284 285 285 286 286 287 287 287 287 288 289 289 289 288 287 285 284 283 282 281 280 280 279 279 278 278 278 277 276 275 275 275 275 275 275 275 274 274 274 274 274 274 277 275 273 273 273 273 273 273 273 273 273 273 273 273 273 272 273 273 273 274 274 274 275
277 280 280 280 278 273 272 275 271 272 268 270 272 271 278 279 276 278 280 280 282 281 279 282 283 284 285 284 285 285 285 285 285 285 286 286 287 287 287 287 287 287 287 288 288 287 286 286 285 283 282 280 279 279 280 278 278 278 278 277 276 276 276 275 275 275 275 275 275 274 274 274 273 275 274 274 273 273 274 272 273 273 273 272 272 273 272 272 272 271 272 273 273 274 275 275 275
279 278 276 277 275 278 278 273 274 274 266 266 265 272 275 279 279 279 282 281 281 282 282 283 284 284 284 285 285 286 285 286 286 286 286 286 287 287 287 287 287 287 287 287 287 287 287 285 284 283 282 280 279 279 279 279 278 278 278 276 276 275 275 275 275 275 275 274 274 275 274 274 274 274 274 273 273 273 273 273 272 274 273 272 272 272 272 272 271 271 271 272 272 274 274 275 276
278 280 278 277 275 274 275 273 272 268 272 269 266 273 277 283 281 282 282 282 280 281 282 283 283 284 284 285 285 285 286 286 286 287 286 287 286 286 286 285 284 284 285 286 287 286 285 285 284 283 282 281 280 279 279 279 278 278 277 277 276 275 275 275 275 274 275 274 274 275 274 274 273 273 273 273 273 273 273 273 272 272 272 272 272 272 271 271 271 271 270 272 274 274 275 275 275
Wind_Speed
6 5 5 1 2 2 6 7 9 5 6 9 5 6 3 3 2 2 3 1 2 1 2 5 6 7 5 4 8 5 2 3 1 4 1 1 1 4 5 5 5 5 2 3 1 4 4 9 15 14 14 15 16 16 17 17 17 17 18 18 18 19 19 19 19 19 19 19 20 19 19 19 19 20 20 21 21 22 21 21 21 21 20 20 20 19 20 20 19 19 19 19 19 19 18 18 19
4 6 4 3 2 3 5 4 7 5 6 8 6 2 1 0 1 4 2 3 0 3 2 6 8 11 12 11 9 4 4 2 1 1 1 2 3 3 6 6 3 6 1 2 0 3 3 5 15 13 14 15 16 16 17 17 17 17 17 18 18 18 19 19 19 19 19 19 18 18 18 18 19 19 19 21 21 20 20 20 21 21 20 20 19 19 19 19 19 19 18 19 19 18 18 19 18
6 6 5 4 8 7 3 6 7 2 7 10 3 2 1 5 6 0 2 3 5 8 7 8 7 4 2 1 5 2 1 1 1 0 1 2 1 3 6 4 2 4 4 2 1 2 3 7 14 13 13 14 15 16 17 17 17 17 18 18 18 18 19 19 19 19 20 19 19 19 18 18 19 19 19 19 21 20 20 20 20 20 20 19 20 19 19 19 19 18 19 19 18 19 18 18 18
4 4 1 3 4 6 6 5 5 4 8 6 3 3 1 4 3 3 1 2 5 8 4 1 4 2 4 8 2 1 2 1 1 1 0 0 2 4 5 2 1 3 3 2 1 1 2 8 13 13 12 13 14 15 17 18 18 18 18 19 19 19 18 18 18 19 19 20 19 19 18 18 19 19 18 19 21 20 19 20 20 20 19 20 20 20 20 19 19 19 18 19 18 18 18 18 19
7 8 6 6 7 7 5 3 4 1 7 2 4 1 3 3 4 1 0 0 1 5 2 3 4 1 2 4 1 2 1 0 1 1 1 2 2 5 5 4 5 4 3 1 0 2 4 11 12 12 12 12 13 14 15 17 18 18 18 19 19 19 18 19 19 19 20 21 19 18 18 18 19 19 17 18 20 19 19 19 19 19 20 20 20 20 20 19 19 19 18 19 18 18 18 19 19
5 11 10 9 6 3 6 7 7 10 2 2 3 2 3 4 4 3 2 4 5 6 3 3 3 3 3 2 1 1 1 1 1 1 1 2 2 3 2 4 5 4 2 1 0 0 3 10 11 12 11 12 11 13 14 15 17 17 18 17 18 18 19 18 19 19 21 21 20 19 18 17 19 19 17 18 20 19 19 19 18 19 19 19 20 19 20 20 20 19 19 19 18 18 18 18 17
1 6 7 10 5 6 7 9 9 7 7 2 2 2 3 3 4 3 2 1 4 8 5 3 5 5 4 0 1 1 2 2 2 1 3 2 4 3 1 4 5 3 1 1 0 1 3 9 10 11 11 12 12 12 14 15 16 16 16 18 17 18 19 18 18 19 20 21 20 21 19 18 20 18 18 19 19 19 19 19 18 18 18 18 19 19 20 19 19 19 19 18 18 18 19 18 18
3 9 4 10 7 6 8 7 9 2 2 3 2 3 2 4 4 1 1 3 4 2 2 4 2 6 1 1 1 2 3 1 3 2 3 2 3 3 3 3 4 2 2 1 0 1 2 6 8 9 12 14 14 12 12 14 15 15 16 17 17 17 18 19 19 19 19 21 21 20 20 19 19 18 19 19 19 18 19 18 19 18 19 18 18 18 19 19 18 18 19 19 19 18 19 18 17
8 9 2 11 9 4 6 9 6 2 2 4 5 4 5 6 3 3 4 2 3 4 6 2 2 4 1 3 1 1 1 1 2 3 4 3 1 1 2 3 4 3 2 1 0 0 1 3 6 12 13 14 13 13 12 13 15 14 16 16 16 17 19 19 19 18 19 20 21 20 19 19 18 19 19 19 19 19 19 19 18 18 18 18 19 19 17 19 19 19 18 18 18 19 19 19 18
4 5 5 6 2 12 9 4 6 1 2 3 6 4 3 2 5 5 4 6 1 4 4 4 3 6 3 4 1 1 1 3 1 1 3 4 3 1 1 3 3 5 4 0 1 1 0 2 6 11 13 13 13 13 14 13 14 14 15 15 16 17 19 18 18 18 19 20 21 20 19 19 19 19 19 19 19 19 19 19 18 18 18 18 19 18 19 17 18 18 19 19 19 19 19 19 18
4 6 3 10 8 9 7 5 3 2 2 2 4 4 4 4 6 3 3 4 3 3 0 3 6 4 2 0 0 3 2 1 1 2 4 5 3 0 3 2 1 5 4 1 1 1 1 1 5 8 13 14 14 14 14 14 14 14 15 15 18 18 17 17 18 18 19 21 21 20 19 20 19 20 20 20 19 20 20 19 19 19 19 19 19 19 18 18 19 18 18 19 19 19 19 19 18
7 3 5 8 6 7 2 7 4 1 2 3 2 4 3 5 3 3 2 5 3 4 4 2 2 5 3 1 0 0 2 2 2 3 5 2 1 1 5 2 2 4 4 3 1 1 1 2 2 5 10 14 14 13 14 15 15 15 16 17 17 17 17 17 18 18 19 20 21 20 19 20 20 20 20 20 20 20 20 19 20 19 19 19 19 19 18 19 18 18 18 19 18 18 19 19 19
10 4 9 9 3 6 5 7 4 3 2 2 0 2 1 9 4 5 3 3 2 4 3 4 1 2 1 1 1 2 1 3 5 3 3 1 1 1 3 3 3 4 2 1 3 1 2 3 3 4 6 12 11 12 13 14 14 15 17 17 16 17 17 17 18 19 19 21 21 19 19 20 20 20 20 20 20 20 20 20 20 20 19 19 19 19 19 19 18 19 19 18 18 19 19 19 19
6 3 4 9 1 6 6 3 2 3 1 1 0 0 3 2 0 2 3 5 3 2 1 2 3 3 2 2 0 1 3 5 5 4 3 5 3 2 4 2 4 3 1 0 3 1 4 3 3 4 4 5 5 7 10 13 14 16 16 16 16 17 17 17 18 19 19 20 20 19 19 20 20 20 20 20 20 20 21 20 21 20 20 20 20 20 19 19 19 19 20 19 18 19 20 20 20
8 2 7 5 4 2 1 5 5 3 3 1 1 1 2 2 2 2 6 4 1 1 2 1 1 2 3 4 2 2 3 3 3 4 4 5 6 4 4 3 3 2 1 1 2 3 4 3 3 3 4 4 4 5 5 7 15 15 16 16 16 17 17 17 18 19 20 20 20 19 19 20 20 20 19 19 20 20 21 20 21 21 20 21 20 21 20 20 20 19 20 20 19 19 20 20 21
4 6 5 6 2 5 0 5 1 5 1 2 1 6 6 1 0 2 1 2 1 2 1 1 3 1 1 3 2 5 4 2 2 1 7 7 5 4 4 3 2 1 1 3 4 3 3 4 4 3 4 4 4 5 5 5 10 15 15 15 16 16 16 17 18 18 19 19 19 19 19 15 15 13 20 15 19 20 21 19 21 21 21 21 21 21 21 20 20 20 21 20 20 20 20 21 21
4 5 8 5 4 3 3 3 4 3 2 3 1 0 2 1 1 1 1 2 4 1 3 1 1 1 2 2 4 4 2 0 1 7 7 5 6 4 3 2 2 1 3 3 3 2 3 4 4 4 4 5 5 5 4 5 7 11 9 13 15 16 16 16 16 15 15 14 16 16 14 10 8 8 9 10 16 13 19 20 20 21 21 21 21 21 22 21 21 21 21 21 21 21 21 20 20
6 7 5 8 2 3 3 5 6 2 5 4 2 2 8 3 0 0 2 6 3 2 4 2 4 3 1 1 3 2 0 3 4 6 5 3 2 2 1 0 1 1 2 3 3 1 3 4 5 5 6 5 5 5 4 4 4 7 7 6 5 9 11 12 9 8 10 7 13 10 8 8 7 7 8 11 8 12 13 21 20 21 21 21 22 21 22 22 22 22 22 21 21 21 21 9 9
7 4 5 7 1 1 2 3 5 6 4 5 3 2 5 3 5 1 2 0 1 3 1 3 2 1 2 0 1 1 3 5 5 4 4 4 2 3 1 1 1 1 4 3 1 2 3 4 5 5 5 5 5 4 4 4 5 5 6 6 6 9 8 8 6 7 7 8 7 7 7 6 7 7 8 12 11 15 14 20 20 21 21 21 21 21 21 21 22 21 22 21 21 21 11 7 8
5 7 8 3 1 1 3 5 3 2 8 6 4 1 4 2 2 1 1 3 1 4 2 1 1 2 3 2 1 1 3 4 4 5 3 3 1 2 1 1 0 0 1 1 0 2 3 6 4 4 4 5 5 4 4 5 4 5 5 5 6 6 6 6 6 7 7 8 7 6 7 7 7 6 11 15 12 7 8 14 19 19 18 18 22 13 17 18 21 20 20 20 14 8 7 8 7
3 8 3 4 4 5 1 5 5 5 7 5 4 0 3 1 2 1 3 3 3 4 5 6 7 6 6 5 4 2 4 4 3 4 4 3 1 1 3 4 3 2 3 2 1 3 4 4 4 5 5 4 4 4 4 5 5 5 6 6 6 5 5 6 6 6 7 7 7 6 7 6 6 6 7 7 7 7 7 7 8 8 8 9 16 8 9 9 11 9 9 10 8 8 8 8 8
5 3 3 5 4 7 0 4 5 4 5 7 3 4 3 0 1 3 8 4 5 5 5 7 6 7 7 5 5 2 4 5 4 4 5 5 5 3 3 2 2 1 2 4 2 3 4 4 5 4 5 4 4 3 4 5 6 6 5 5 6 5 5 5 5 6 7 7 6 6 7 7 7 7 7 7 8 7 8 7 8 8 8 8 9 8 8 9 8 8 8 8 8 7 7 7 7
9 4 4 3 1 6 0 2 2 6 3 4 2 1 1 1 0 1 6 4 2 4 3 7 6 7 7 4 3 4 5 5 5 5 5 5 3 3 4 4 4 3 4 3 1 3 3 4 4 5 5 5 4 3 5 5 5 5 5 5 6 5 5 5 6 6 6 6 6 6 7 7 7 7 7 7 8 7 7 7 7 7 7 8 8 8 8 8 8 8 8 8 7 7 8 7 7
7 5 2 4 5 4 1 4 4 5 8 1 1 1 1 1 1 0 1 2 3 1 2 5 5 4 4 5 4 6 7 7 8 7 7 7 7 6 5 5 3 3 4 2 1 2 4 4 4 5 5 5 4 3 5 5 4 5 5 5 6 6 6 5 6 6 6 7 7 7 6 6 7 7 7 8 7 7 7 7 7 7 8 7 7 7 8 8 8 7 8 8 8 8 8 8 7
7 7 1 2 4 1 4 5 5 5 3 1 4 1 1 3 1 0 2 3 2 2 2 5 5 5 5 5 5 4 4 5 6 6 4 4 6 5 4 1 4 4 5 3 2 4 4 3 5 5 5 4 3 3 4 3 3 5 5 5 5 5 6 5 5 5 6 6 6 7 6 7 7 7 7 7 6 8 7 8 7 7 7 7 7 7 8 8 8 8 8 8 8 8 8 8 8
1 4 3 3 3 2 2 5 4 3 1 2 2 1 3 3 2 2 4 5 4 2 4 4 4 4 4 5 5 5 5 6 6 5 7 6 4 4 5 3 4 5 5 4 3 4 4 4 5 5 4 4 3 4 3 4 3 5 4 5 5 5 6 5 5 6 6 6 6 6 7 6 6 7 7 6 7 8 7 7 7 8 7 7 8 8 8 8 8 8 8 8 8 8 8 8 8
4 6 6 8 3 4 3 3 1 1 1 1 2 1 1 2 3 3 2 5 3 2 4 1 4 5 5 5 5 5 5 7 8 7 3 2 4 5 5 3 5 5 4 4 4 4 4 5 4 4 4 3 4 4 3 3 3 4 4 4 5 6 5 6 6 5 6 6 6 6 6 7 6 7 7 7 6 7 7 7 7 7 8 8 7 8 7 8 7 7 8 8 7 7 7 7 7
8 9 7 6 3 4 2 3 1 0 1 1 3 1 1 2 1 4 2 4 4 6 4 4 3 5 5 5 5 5 4 6 6 4 7 6 6 6 4 7 5 5 5 5 4 4 4 5 4 4 4 3 3 3 3 3 3 3 4 5 5 5 5 6 6 6 6 6 6 6 6 6 6 6 7 6 6 6 6 7 7 7 8 7 7 7 8 8 7 7 7 7 6 6 6 7 7
6 5 7 1 4 3 0 2 1 1 1 1 1 1 1 1 2 4 4 4 4 5 5 5 5 5 5 5 5 5 7 6 4 5 8 8 6 5 6 5 8 6 3 6 6 4 5 4 5 3 4 4 4 3 3 3 3 3 5 5 5 5 5 5 6 5 6 5 5 5 5 6 6 6 6 6 6 6 6 7 7 7 7 7 7 8 8 7 7 8 8 8 7 7 7 8 7
1 3 6 3 2 2 1 0 1 1 1 3 1 1 4 4 9 5 0 6 3 3 4 5 5 5 5 5 4 6 5 3 4 8 7 5 5 5 5 5 5 7 6 4 4 5 4 3 4 3 3 4 4 3 3 3 3 4 5 5 5 5 5 5 5 5 5 5 5 5 4 6 6 6 5 5 6 6 6 7 7 7 7 7 7 7 8 7 8 8 8 8 9 8 9 9 8
4 1 4 2 2 1 1 0 1 3 1 3 1 1 4 4 6 4 2 5 7 5 5 5 5 5 5 6 5 5 6 5 8 9 6 4 3 4 4 5 4 5 5 4 5 5 4 4 3 4 3 4 4 4 4 3 3 4 5 5 5 5 5 5 5 5 5 5 5 5 5 5 5 6 5 5 5 6 6 6 7 6 6 6 6 6 6 7 7 8 8 8 8 8 8 9 9
2 1 2 3 5 1 3 2 1 1 1 2 2 1 2 5 7 2 4 3 5 5 5 5 5 5 5 5 5 5 6 3 4 4 3 2 3 4 5 6 5 6 7 5 4 4 5 4 4 4 3 4 4 3 4 4 4 4 4 5 5 4 5 5 5 5 5 5 5 5 4 5 5 5 6 5 5 6 6 6 6 6 6 6 6 6 6 8 7 7 8 8 9 9 10 10 9
3 3 0 1 3 0 1 0 1 2 0 0 1 1 3 2 2 1 2 5 4 5 5 5 6 6 6 5 5 5 2 2 1 1 1 4 3 3 4 6 6 6 6 6 6 4 4 4 4 5 4 4 4 4 5 4 5 5 4 4 4 4 5 5 5 4 5 5 4 5 4 4 4 5 5 5 4 5 5 5 5 6 5 5 5 6 6 7 7 7 8 8 7 8 9 10 11
2 3 3 1 1 0 1 3 0 3 1 1 2 0 3 5 5 3 2 4 4 5 6 6 6 5 5 4 4 1 1 1 1 1 2 4 4 3 3 5 5 5 5 6 6 6 5 4 4 4 3 3 3 4 4 4 4 5 4 5 3 5 4 4 4 5 5 5 4 5 4 4 4 4 4 4 4 4 4 4 4 5 5 5 5 5 6 6 6 6 7 8 8 7 9 10 10
1 1 3 1 1 1 1 1 2 3 3 1 2 1 7 8 6 4 5 3 5 6 6 6 5 5 4 4 2 3 4 4 3 2 4 4 5 4 4 4 4 4 4 5 4 4 4 4 4 4 3 3 3 4 4 4 4 4 3 4 4 4 3 3 4 5 4 4 4 3 4 4 4 4 4 4 4 4 4 4 4 5 4 5 5 6 6 7 7 7 7 7 7 7 8 9 9
2 2 2 3 3 1 1 1 2 3 3 3 3 2 7 9 7 5 1 3 6 7 4 5 6 5 3 2 3 3 5 4 3 2 1 4 5 6 4 4 4 4 4 4 4 4 5 4 3 3 2 3 3 3 3 3 3 2 4 3 4 3 2 3 4 4 3 4 3 4 4 4 3 4 3 4 3 3 4 4 5 4 5 4 6 7 7 7 9 9 9 7 8 7 7 9 10
2 3 5 1 2 1 1 1 2 0 1 0 1 4 4 6 6 5 3 1 3 5 5 6 5 4 2 3 4 4 4 4 3 2 2 5 5 4 5 4 4 4 4 5 5 4 4 5 4 3 1 1 3 3 1 1 1 1 1 2 3 2 3 3 3 3 3 3 3 3 3 3 3 3 3 3 4 4 4 3 4 5 4 4 5 6 5 6 6 6 6 5 7 8 8 9 10
3 6 6 3 1 1 1 0 3 2 1 1 1 4 2 4 4 4 2 4 6 7 7 6 7 4 3 5 5 5 4 1 0 1 1 3 4 5 4 5 5 6 3 4 6 5 4 3 4 3 1 2 2 2 1 1 0 1 1 1 3 2 3 3 3 3 2 2 3 3 3 3 3 3 3 3 3 4 4 4 5 5 4 4 4 3 4 5 6 6 6 6 5 6 7 9 10
4 4 3 3 2 2 5 2 4 2 0 4 2 4 5 4 5 3 4 7 3 6 7 6 6 4 4 4 5 5 1 4 1 2 2 3 4 5 5 5 5 6 6 5 5 5 4 3 3 3 2 2 1 1 1 1 1 1 1 2 4 2 1 2 3 2 2 3 2 3 3 3 3 3 3 3 3 3 3 4 4 4 4 3 5 6 5 7 6 7 7 7 7 4 4 6 9
6 4 3 0 2 1 1 2 5 5 1 2 1 3 7 6 3 3 5 4 2 3 5 7 5 6 7 8 8 7 5 5 5 6 6 4 4 4 4 5 5 4 5 4 5 6 4 4 4 3 2 1 1 1 1 1 2 2 3 3 3 4 3 2 3 1 2 3 2 1 2 3 3 3 3 3 3 3 3 4 3 4 5 3 5 5 6 6 6 6 7 7 5 7 7 7 7
4 4 4 1 1 1 1 2 5 5 0 2 2 0 5 1 0 2 3 2 3 2 1 1 0 4 4 3 1 5 9 8 7 5 5 4 4 5 7 6 4 5 6 7 7 7 5 6 5 4 3 2 1 1 2 1 2 3 3 4 4 3 2 3 3 3 2 1 2 2 2 2 3 3 3 3 3 3 3 3 4 4 4 3 4 5 5 5 5 5 5 6 7 4 6 4 5
1 0 1 1 2 1 2 4 3 2 2 3 4 3 3 3 4 7 6 1 2 1 2 5 2 2 3 5 6 5 4 5 9 9 8 8 7 5 4 3 5 5 7 7 7 7 6 6 5 4 3 2 3 2 2 2 2 3 2 3 2 2 1 1 2 1 2 2 1 0 1 2 3 3 3 3 3 3 3 3 3 4 4 4 5 4 3 4 5 6 5 4 5 4 2 4 4
2 1 2 2 2 1 1 5 1 1 1 2 2 2 2 3 3 4 3 2 5 3 2 5 4 4 4 6 6 6 6 5 4 3 4 5 6 5 5 5 6 7 7 4 4 5 6 6 6 5 5 3 2 3 1 2 3 2 2 3 3 3 3 0 0 0 2 0 2 3 1 1 2 4 3 3 3 3 3 3 4 3 3 3 3 4 5 4 5 4 4 5 4 3 3 6 6
1 1 4 3 2 0 0 2 2 0 1 2 5 3 1 4 4 3 2 1 4 4 6 6 6 6 6 6 6 6 6 6 7 7 7 7 7 8 9 9 7 9 5 4 5 5 7 7 6 6 4 4 3 3 2 2 3 2 3 2 2 2 2 2 2 2 1 2 5 3 3 3 3 2 3 3 3 3 3 3 3 3 4 3 4 4 4 3 5 5 4 3 4 3 3 5 5
0 2 1 0 0 1 2 2 2 0 1 3 2 2 1 3 4 2 1 1 4 6 7 7 7 6 7 7 8 7 8 7 7 7 7 8 8 8 7 7 6 4 6 8 7 6 5 5 5 4 5 4 4 4 3 2 3 3 3 2 2 1 1 1 2 1 2 2 4 3 3 3 3 2 2 3 3 3 3 2 3 3 3 3 3 4 3 3 3 4 5 5 4 4 2 3 3
0 2 2 2 1 2 0 1 2 2 3 2 1 2 0 7 4 1 3 1 6 8 9 9 8 7 7 8 7 8 6 5 5 6 7 7 7 7 7 4 4 6 5 4 4 4 5 5 5 5 4 4 4 4 5 4 4 3 4 3 3 1 1 2 2 3 2 2 3 2 2 3 2 2 1 2 2 2 2 2 2 2 2 2 2 2 3 3 3 3 3 3 3 3 2 2 5
1 2 1 1 2 1 1 5 2 2 0 3 1 1 1 3 4 7 5 6 7 5 3 4 4 5 6 6 7 8 8 7 7 7 7 6 4 4 3 7 6 4 4 4 5 5 5 6 5 5 5 4 4 4 4 5 4 4 4 4 4 3 1 2 2 2 1 2 2 1 1 1 0 2 1 1 1 1 1 1 2 2 1 2 2 2 3 3 3 3 3 3 4 3 3 2 4
1 1 1 2 0 4 1 3 3 1 3 2 2 0 0 1 3 5 9 3 3 8 7 8 8 8 8 7 7 7 7 7 7 6 6 4 2 2 2 4 5 5 4 5 5 5 6 6 5 6 4 4 4 4 4 4 4 4 4 5 5 4 4 3 3 3 2 2 1 1 0 1 1 1 1 1 2 1 1 2 1 2 2 2 2 2 2 2 2 2 3 3 3 2 2 2 3
3 4 4 1 3 5 2 4 2 1 2 0 1 0 1 6 9 2 3 8 5 6 7 10 10 9 8 7 8 8 7 6 7 7 6 5 6 7 6 5 4 5 8 7 8 7 6 6 7 7 7 5 5 5 5 4 4 4 4 4 4 4 4 4 4 4 3 3 2 1 0 1 1 1 0 0 1 1 0 1 2 2 2 2 2 2 2 2 2 2 2 3 2 2 2 2 3
3 1 1 3 2 3 1 4 2 4 4 2 0 1 2 5 7 5 8 8 7 6 7 6 9 10 9 9 7 6 6 7 8 7 7 7 7 7 8 8 8 8 7 8 7 7 7 6 7 8 7 6 5 5 5 5 5 4 4 4 4 4 4 4 5 5 4 4 5 3 3 3 3 2 2 2 2 2 1 1 1 2 1 2 2 2 2 2 1 2 2 2 2 2 2 1 2
0 2 1 2 5 0 0 1 1 2 5 4 4 1 3 1 2 1 7 6 5 4 4 4 5 5 5 5 4 5 5 6 6 7 8 8 9 9 9 9 9 9 9 8 7 7 7 7 8 8 6 7 6 7 5 6 5 5 4 4 4 3 5 4 5 5 5 5 4 4 3 4 4 3 4 2 2 2 2 1 1 1 1 2 2 2 2 1 1 1 1 1 2 2 2 1 2
1 1 2 4 0 3 1 2 2 1 3 6 1 3 3 3 1 3 3 2 1 1 1 0 3 3 2 3 5 7 7 7 6 7 7 8 8 8 7 8 9 9 9 8 8 8 8 9 8 9 9 9 8 7 7 7 6 5 4 5 5 4 3 4 4 3 4 5 5 4 4 4 4 3 3 3 2 2 2 1 1 1 1 1 1 1 1 1 1 1 1 1 2 2 2 2 2
0 0 1 1 2 5 5 1 0 1 2 5 1 7 5 8 2 2 6 2 2 2 3 2 4 4 1 4 6 7 7 7 6 8 8 8 6 6 8 9 8 8 8 10 11 11 12 10 9 9 7 6 8 8 8 7 7 6 6 5 5 5 5 6 6 5 5 4 4 5 4 4 4 4 4 3 3 3 2 2 1 1 1 1 2 2 1 1 0 0 0 0 1 2 2 3 3
0 2 2 1 1 2 2 1 2 4 1 4 2 2 8 5 3 3 3 3 6 5 6 5 5 4 5 8 7 8 9 10 8 7 7 7 8 9 8 8 9 11 12 11 11 10 10 10 10 10 9 10 9 8 8 8 8 8 7 7 6 6 6 6 5 6 5 5 4 4 4 4 5 4 3 3 3 3 2 2 1 2 2 1 2 2 1 1 0 0 1 1 1 2 2 3 3
0 2 0 0 0 0 3 3 3 4 3 5 7 3 6 4 5 3 3 5 9 9 7 5 8 7 9 9 10 9 8 6 7 9 9 9 8 9 9 10 9 9 10 11 11 10 8 7 8 10 12 12 11 9 7 7 8 7 7 8 8 7 6 5 5 5 5 5 5 5 5 5 4 3 4 3 3 3 3 3 2 2 2 2 2 2 2 1 1 0 1 1 2 2 2 3 3
1 0 1 1 2 1 1 0 3 4 3 5 7 4 3 4 4 4 6 7 8 7 4 9 11 11 10 9 9 9 9 9 8 8 9 10 10 10 10 10 9 10 10 9 9 7 10 10 9 9 7 6 6 8 8 9 9 7 7 6 6 6 6 6 6 6 6 6 6 6 5 4 6 4 4 4 4 4 3 3 3 2 2 2 2 2 1 1 1 1 1 2 2 2 3 3 4
0 2 1 1 2 1 2 1 1 1 2 1 1 7 7 7 6 4 6 6 8 9 10 9 10 10 11 10 10 9 9 9 9 9 9 9 10 9 8 7 8 6 6 6 8 10 11 8 9 9 11 10 10 10 9 9 8 8 8 9 8 7 8 7 6 7 7 6 5 5 5 5 4 5 4 4 4 4 4 4 4 3 3 3 2 2 2 2 2 1 2 2 3 3 3 4 4
0 1 1 4 3 0 1 4 2 2 1 2 1 7 8 11 2 6 5 6 5 7 7 8 9 10 10 10 10 10 9 9 10 9 8 8 8 8 7 5 4 5 6 8 9 7 7 10 10 10 8 9 11 10 10 9 8 8 9 9 8 7 7 6 7 7 7 7 6 6 5 4 5 5 4 4 5 4 4 4 4 4 3 3 3 3 3 2 2 2 2 2 3 4 4 4 4
Wind_Direction
331 334 311 341 100 98 62 4 56 337 56 56 71 21 80 14 56 69 21 317 36 25 27 42 25 21 81 133 122 118 60 107 205 107 179 238 257 254 265 255 263 291 274 273 291 306 306 13 22 14 14 18 21 21 19 17 16 17 16 16 15 16 15 14 14 12 13 11 8 7 12 7 6 6 7 7 6 4 7 3 3 2 3 2 2 4 0 1 2 2 2 359 358 0 1 359 359
324 328 334 2 92 85 11 58 101 34 54 86 43 88 63 295 67 55 76 55 174 131 116 87 69 76 89 109 119 107 32 24 164 177 249 248 308 288 250 252 258 260 119 228 238 278 321 7 27 16 18 22 23 23 20 18 17 17 16 16 15 15 14 14 12 13 13 9 9 6 7 6 6 7 7 9 3 4 3 5 1 1 1 1 2 2 360 360 1 2 359 359 359 357 357 359 359
337 356 352 34 41 68 101 40 79 70 85 70 15 46 179 65 72 27 121 108 109 126 128 113 110 95 60 116 38 60 210 333 21 27 101 345 35 287 284 258 229 252 181 214 219 267 358 24 30 18 17 22 25 24 21 19 18 18 17 17 15 15 15 14 13 13 11 7 8 3 7 7 5 7 4 9 6 1 360 5 2 0 359 359 2 0 0 1 0 360 359 359 357 358 358 358 356
339 15 76 66 55 33 54 33 80 104 82 124 74 318 62 113 138 160 222 194 152 139 155 148 59 328 99 60 99 72 65 15 250 176 37 306 194 244 266 282 157 79 111 167 239 325 1 38 30 19 15 17 19 20 22 20 18 19 18 17 16 14 13 14 13 12 10 8 6 3 6 9 9 2 3 4 5 1 3 2 2 0 356 0 1 0 360 1 1 1 360 360 360 359 358 358 358
40 38 59 86 94 20 83 72 81 76 73 177 127 264 121 140 158 178 250 276 85 160 114 133 82 345 98 113 49 109 206 270 357 126 192 252 259 241 274 22 59 95 127 215 278 13 12 39 28 22 15 12 15 15 16 21 20 19 19 18 15 13 11 11 12 13 12 8 5 6 7 6 12 1 3 6 4 3 6 7 1 1 359 1 359 359 359 2 3 0 1 3 1 359 1 1 360
48 56 20 64 70 163 60 59 42 63 65 133 97 176 172 158 139 172 107 67 57 46 96 63 152 164 31 341 160 108 215 70 205 340 148 254 244 258 291 67 75 125 199 212 248 317 42 40 27 24 17 11 4 11 12 13 20 18 17 15 13 11 15 14 13 12 15 7 6 7 10 7 10 1 5 8 4 5 5 8 0 3 3 3 358 356 2 3 1 360 3 5 1 1 4 2 0
64 50 9 48 46 48 85 86 76 73 22 81 128 152 165 173 144 123 124 49 39 58 18 108 105 99 81 275 6 299 243 221 72 228 167 227 236 276 343 70 96 155 179 203 248 48 37 39 27 25 18 6 8 12 11 10 14 18 15 13 14 14 18 13 13 13 14 10 6 10 8 10 12 1 10 10 5 6 6 8 1 4 6 4 2 359 360 1 359 359 2 4 1 4 5 3 4
45 94 348 83 66 57 59 70 65 352 41 47 137 92 168 139 123 90 57 96 6 43 329 162 214 95 271 42 152 276 334 200 174 205 227 252 242 283 33 116 98 111 189 247 297 24 30 48 27 27 18 14 10 13 13 6 15 17 17 12 15 18 19 12 13 14 15 13 10 10 6 12 9 7 14 7 8 7 9 5 5 5 6 5 2 3 1 360 357 359 2 0 1 6 7 6 8
27 77 12 71 62 56 74 65 86 7 75 20 23 33 55 113 123 111 53 45 126 43 28 319 242 70 264 34 104 279 314 292 244 237 214 226 272 273 31 117 117 140 197 229 270 317 12 35 14 21 18 15 14 12 13 8 15 19 18 12 15 13 14 13 14 13 14 14 11 9 10 11 10 12 12 10 10 10 10 8 6 8 9 5 5 7 4 2 0 360 359 358 3 5 7 8 8
47 73 25 88 145 78 85 14 62 327 104 96 57 16 8 357 85 67 100 40 37 96 15 18 76 114 142 102 359 4 229 238 279 321 272 258 241 86 149 162 148 103 82 116 240 257 270 348 5 21 23 23 17 13 16 14 18 22 19 15 12 12 14 14 15 15 12 13 12 10 12 13 12 13 13 13 12 13 12 10 8 9 8 7 6 8 7 2 2 5 0 359 3 7 7 7 9
49 17 116 73 54 87 76 102 76 21 25 345 30 8 24 64 75 63 60 127 42 109 175 59 55 121 101 293 184 242 268 203 120 220 246 240 248 133 119 149 193 102 105 147 204 258 274 306 2 21 31 29 23 20 19 20 32 24 17 14 8 18 16 16 17 17 15 14 11 12 15 15 14 14 15 14 14 14 14 12 10 11 9 8 10 7 8 4 7 7 4 4 5 6 6 7 9
56 29 33 95 57 123 150 112 97 83 9 27 35 5 334 72 56 50 8 63 333 34 55 26 162 145 79 75 291 305 322 214 212 237 259 256 207 199 132 148 81 78 119 155 150 44 33 22 23 19 24 36 29 28 22 31 32 24 20 17 17 18 19 21 21 18 18 15 13 14 17 17 16 15 15 15 15 14 16 14 12 12 12 10 11 11 6 10 10 7 7 8 5 5 6 9 10
100 97 95 76 124 86 134 91 128 88 354 350 241 334 270 62 92 140 110 103 15 53 355 330 160 91 59 145 264 336 20 234 255 246 260 211 226 138 108 105 87 93 121 167 99 122 71 60 35 23 26 34 28 27 22 36 33 26 23 21 19 22 21 24 25 21 21 18 17 18 19 19 17 15 16 16 16 15 16 14 13 12 14 13 12 12 9 13 10 10 10 10 7 7 7 9 9
93 154 134 98 352 94 110 117 83 89 7 234 345 14 28 95 292 197 136 55 347 74 220 304 93 118 92 66 316 325 257 263 264 283 359 351 69 86 102 78 68 76 31 46 100 74 43 35 36 25 31 35 32 26 13 30 38 30 28 25 25 27 25 30 30 27 25 22 21 21 23 22 19 15 17 16 17 15 15 14 12 12 14 14 15 13 12 14 12 12 13 11 11 11 10 11 9
105 139 81 87 107 74 185 116 173 136 192 170 231 62 55 27 130 90 105 116 331 213 280 47 169 71 233 138 282 232 241 256 280 338 42 37 77 76 58 47 62 42 16 13 37 60 44 36 28 20 27 38 36 36 28 20 41 38 35 32 31 32 33 36 34 32 28 25 25 25 25 24 20 14 19 16 17 15 15 15 13 11 14 15 15 15 15 14 13 13 14 14 15 16 14 12 11
116 84 77 98 69 113 3 101 77 108 188 159 256 129 79 359 157 80 285 153 182 342 87 249 18 179 137 126 212 215 237 270 334 65 62 54 53 53 56 25 31 14 1 17 30 31 47 49 30 26 25 23 38 44 34 26 41 45 40 39 36 39 42 41 38 36 31 29 28 27 25 25 17 10 17 17 16 15 14 17 15 13 13 14 16 15 15 14 13 12 13 14 16 18 16 13 10
56 81 71 52 100 93 192 121 150 165 205 165 224 55 111 98 319 62 2 60 87 349 22 325 148 78 144 181 199 215 242 250 90 56 57 44 58 40 26 22 16 6 357 1 29 27 39 52 44 42 14 23 35 48 42 31 37 48 37 36 41 44 48 46 42 36 36 28 31 27 24 22 15 6 5 16 14 13 11 16 16 14 13 14 16 14 14 14 13 12 12 13 14 16 15 7 5
56 48 99 65 148 77 204 163 184 166 125 191 179 159 114 123 341 182 47 19 75 24 54 336 17 45 176 190 171 193 238 81 61 74 53 72 75 93 95 282 48 22 2 16 11 12 40 37 56 42 26 19 49 50 44 37 32 47 42 33 37 46 53 50 42 40 34 29 31 26 23 19 16 6 7 16 11 11 7 15 16 15 14 16 17 13 13 12 13 11 10 12 12 12 8 1 355
63 91 61 113 204 242 146 168 161 122 163 170 154 143 126 183 134 208 79 285 50 49 1 19 70 321 341 294 217 117 102 89 79 84 84 71 71 100 111 340 31 21 49 36 355 3 16 61 50 43 34 30 53 50 43 36 40 48 40 37 36 47 50 51 43 37 32 31 30 27 23 18 16 9 12 16 15 11 11 17 18 15 16 15 17 12 12 9 12 9 8 11 9 6 3 356 354
23 101 80 43 207 82 71 119 144 103 134 118 119 222 105 190 112 204 175 187 13 152 177 343 220 210 223 247 261 148 106 97 109 113 122 99 121 157 118 170 282 5 111 173 212 353 52 72 58 52 50 42 52 41 44 38 40 48 42 41 43 45 47 47 42 38 32 29 26 28 22 20 16 13 11 11 12 6 1 15 17 14 14 11 14 8 7 6 10 7 7 10 5 360 356 355 354
337 67 124 164 177 99 6 93 105 122 115 130 124 205 94 210 195 136 176 94 281 262 216 167 200 198 207 227 214 159 126 121 122 121 117 128 123 211 175 183 179 192 154 115 43 56 67 75 62 49 54 45 51 30 44 41 45 45 41 46 50 45 46 46 43 39 34 27 24 24 23 20 17 14 10 7 8 5 8 13 13 10 5 4 9 4 4 2 5 1 360 4 0 358 356 354 353
91 82 65 120 119 79 158 106 109 99 95 99 101 106 175 250 59 104 145 146 228 212 224 209 185 183 182 204 228 163 155 157 172 163 160 150 161 174 228 251 254 316 147 93 101 84 79 76 71 65 58 48 43 33 45 46 49 45 38 51 57 43 46 48 42 42 33 27 19 23 25 20 17 14 11 10 8 6 10 15 12 7 6 6 4 4 2 4 4 1 1 359 357 354 353 350 352
95 358 41 30 40 121 257 69 95 105 88 108 109 193 63 43 263 163 173 188 235 221 203 186 186 180 189 178 153 149 167 179 192 195 176 176 192 209 210 199 178 141 121 144 164 113 96 73 71 71 62 51 38 33 50 54 54 49 48 56 64 46 46 49 46 42 36 28 23 22 30 18 17 13 12 9 9 6 12 14 10 7 8 7 3 3 3 5 3 1 358 356 350 352 353 350 353
84 122 104 38 66 70 100 86 90 97 105 110 199 56 84 128 120 213 203 255 231 228 164 157 168 162 158 163 188 173 181 183 201 199 188 186 182 200 204 207 201 152 115 152 169 121 95 83 86 77 69 64 42 41 60 59 55 53 50 53 58 57 53 49 50 44 37 30 28 23 32 25 17 14 12 10 6 8 14 10 9 8 10 7 3 4 5 4 2 0 356 353 353 353 352 350 353
79 93 121 136 59 51 65 98 81 84 79 145 83 125 235 180 187 63 257 231 228 206 144 121 134 138 159 176 203 207 190 202 209 219 228 231 201 203 220 84 130 140 135 179 188 116 110 112 88 79 74 68 55 56 62 68 63 63 54 60 59 60 52 53 54 46 39 32 28 27 24 26 19 17 12 8 4 13 10 11 9 8 7 6 5 7 8 3 2 359 357 354 352 350 350 349 354
74 126 107 89 93 54 61 61 63 76 90 55 83 318 308 251 304 238 228 220 221 186 114 134 125 144 187 206 215 213 207 203 216 203 210 215 214 194 240 173 135 141 174 165 156 126 125 104 90 91 88 84 74 65 58 72 69 73 61 66 73 61 58 56 52 47 38 36 30 28 25 29 26 18 13 7 13 9 9 8 10 7 6 5 9 9 5 5 359 356 355 354 351 351 350 346 349
118 108 104 109 127 97 10 113 4 354 87 285 150 281 289 322 36 291 262 216 172 138 163 188 152 193 217 223 238 236 206 221 205 204 211 219 218 190 228 153 151 171 151 157 140 137 132 104 98 99 93 87 78 72 81 90 89 85 79 85 72 71 66 61 54 47 43 37 31 28 29 25 29 20 16 11 16 10 10 9 9 3 8 7 7 5 3 5 358 357 353 351 348 348 347 339 344
103 119 82 47 35 54 70 67 63 30 306 103 116 155 301 315 51 227 236 208 165 162 202 215 209 223 235 240 243 249 233 238 225 175 200 204 212 209 203 156 165 163 156 161 153 145 119 117 116 108 105 96 82 69 79 94 97 100 92 83 79 79 75 67 58 50 45 36 29 30 27 30 28 23 19 15 18 11 13 11 6 9 7 2 4 1 2 2 360 353 350 351 340 348 342 343 347
141 107 85 26 25 60 353 139 245 109 273 152 150 57 333 318 224 246 248 149 164 169 199 224 230 241 251 253 263 266 238 237 209 200 209 204 203 191 187 176 162 170 201 156 157 140 131 136 119 126 111 89 84 75 90 115 111 97 92 88 86 84 77 73 64 56 53 38 33 27 31 34 30 25 18 19 17 14 13 13 12 9 3 1 360 359 359 2 0 358 357 355 351 356 355 353 352
101 29 122 52 9 29 343 28 112 146 259 141 111 352 288 272 243 269 213 149 145 173 225 234 241 249 259 264 253 263 261 235 210 213 212 207 201 187 171 183 181 151 156 152 133 130 143 132 129 131 107 95 85 73 70 76 95 103 89 88 92 85 84 82 75 65 57 51 41 32 37 39 31 25 24 17 22 20 16 16 11 6 0 360 358 360 6 2 1 1 358 355 357 357 359 352 354
114 163 53 106 64 33 289 116 285 119 218 129 90 115 290 273 286 265 209 160 158 206 238 249 251 253 254 258 266 256 254 211 209 217 229 215 196 163 163 159 157 139 131 139 133 146 130 135 137 116 103 82 77 65 64 63 78 90 95 92 88 93 93 89 85 72 63 58 52 40 39 47 33 29 25 24 22 24 19 14 11 2 356 358 2 360 6 5 4 1 356 359 353 356 1 354 355
56 52 338 332 96 267 296 317 74 99 327 87 84 84 241 273 267 274 174 170 159 204 244 258 263 261 250 248 245 249 250 286 284 296 278 258 194 160 161 155 154 147 148 147 131 131 127 140 124 114 97 93 83 82 77 65 72 94 104 101 88 92 93 92 87 80 74 66 63 49 40 49 41 30 28 26 29 26 22 14 6 358 358 1 3 2 8 12 4 1 359 360 358 358 358 359 355
3 102 154 16 50 223 10 57 99 66 264 333 168 258 335 328 292 274 171 168 179 208 256 271 271 267 266 248 231 236 299 341 9 327 230 166 184 157 151 147 164 158 145 144 138 131 133 122 109 118 113 108 98 78 71 63 71 89 98 98 98 95 95 99 94 86 71 68 64 57 40 52 45 35 31 26 33 30 22 17 1 0 357 3 4 7 12 10 10 3 360 2 6 353 359 357 355
346 37 109 203 96 308 44 307 74 12 128 249 0 160 242 255 290 298 245 177 177 212 249 269 268 260 262 250 235 230 133 76 80 97 120 140 139 141 146 153 155 149 148 145 148 143 143 125 121 121 122 112 108 92 84 85 80 95 98 101 103 92 95 100 94 86 74 79 70 59 54 48 52 39 36 31 38 37 26 19 1 3 0 6 12 17 15 8 11 10 3 2 3 2 4 359 355
192 43 65 37 28 90 132 68 300 29 8 113 331 250 277 285 300 281 225 191 182 220 230 252 274 294 278 221 214 151 151 137 161 167 131 118 114 133 137 132 132 137 141 147 143 127 111 112 109 111 116 119 98 86 83 77 99 97 89 103 95 92 82 83 96 84 94 88 75 76 66 54 54 48 40 33 40 37 21 15 16 4 5 12 20 20 16 11 11 11 11 2 4 7 5 358 351
110 169 158 134 106 23 53 254 282 42 355 33 17 321 299 308 314 324 234 187 191 231 267 287 281 279 295 164 172 163 160 176 211 211 156 133 138 146 148 142 129 135 141 142 131 123 115 104 109 99 119 130 104 76 69 50 46 75 108 93 75 79 71 86 74 105 110 93 97 86 76 69 53 60 47 44 35 41 26 18 14 8 8 17 22 22 17 11 8 5 7 6 4 3 11 2 356
71 91 85 71 126 316 285 280 263 91 44 270 267 290 266 275 285 290 249 156 230 265 270 265 273 275 261 167 175 183 177 188 227 203 175 158 159 156 152 139 129 122 137 140 135 143 148 147 131 128 159 109 104 94 72 100 81 25 35 78 126 151 126 100 91 110 107 130 115 95 86 83 72 59 57 49 45 35 33 18 19 15 7 22 26 24 11 10 11 9 1 0 6 8 10 4 2
148 115 98 55 64 48 239 250 345 317 67 283 326 332 291 275 300 328 106 141 224 226 242 264 261 256 231 168 181 191 214 311 76 111 181 148 146 156 147 141 140 135 171 156 154 164 156 141 132 159 169 104 112 139 144 107 163 171 177 186 153 132 99 106 112 117 137 130 112 103 98 96 81 61 59 56 48 42 32 24 21 13 15 17 29 12 20 16 11 14 7 14 13 15 15 3 2
45 103 132 85 346 261 283 278 334 312 51 262 346 9 280 282 287 311 180 185 233 218 207 222 213 228 194 202 185 195 179 195 249 246 237 187 166 169 164 166 175 169 164 168 156 136 143 140 145 158 179 132 106 141 89 108 119 61 126 178 137 111 5 124 133 135 135 115 109 121 112 100 92 70 54 58 54 40 37 33 19 5 15 16 20 22 18 18 13 15 12 13 4 15 25 11 11
51 29 50 144 282 36 281 289 333 331 79 291 359 334 290 300 285 276 250 206 260 252 217 238 218 186 189 193 183 177 190 186 208 211 211 215 204 194 182 182 182 152 152 149 156 154 156 157 164 164 167 133 72 10 116 166 118 97 71 107 104 123 144 107 81 61 83 88 90 114 104 112 96 85 65 59 62 46 39 33 13 15 11 14 28 24 16 17 10 13 15 13 16 15 17 12 15
1 81 113 105 351 2 163 271 318 301 339 62 40 10 324 325 221 306 288 244 278 294 306 289 292 216 192 183 214 189 179 190 201 219 242 227 220 217 202 200 169 169 176 174 170 170 169 172 175 168 164 144 75 43 65 116 64 48 62 70 70 74 33 44 48 28 2 82 100 81 158 112 103 93 72 51 58 54 39 27 26 15 17 9 32 28 21 6 4 6 16 15 17 22 11 13 7
355 316 148 186 153 252 319 316 9 24 332 5 47 33 295 284 267 241 271 333 244 291 204 241 239 175 163 179 208 223 240 202 182 199 206 207 209 217 232 197 185 191 189 191 178 171 158 164 162 160 143 123 90 62 83 76 76 114 86 105 93 78 58 24 77 127 61 44 21 38 57 102 103 84 63 55 37 52 37 25 27 27 21 12 36 24 15 9 5 6 13 20 9 18 20 7 26
82 291 160 174 168 140 50 353 69 7 125 334 46 109 266 330 276 232 241 234 251 298 277 252 246 240 225 206 208 204 206 215 249 240 217 211 232 228 226 208 202 192 209 177 168 163 161 159 163 160 157 145 115 82 75 100 77 69 115 146 156 163 145 262 320 159 124 50 40 48 50 45 67 90 58 44 38 42 47 29 29 26 18 9 31 22 18 9 355 358 6 14 7 1 10 29 19
54 167 134 119 109 90 212 86 86 154 296 296 42 89 170 315 290 264 277 259 262 283 266 264 251 228 223 224 215 209 209 206 189 207 210 212 208 201 207 212 198 202 183 164 165 167 165 166 163 165 162 149 137 107 82 112 121 132 117 122 135 151 140 152 149 136 42 86 55 28 54 43 49 73 71 44 40 33 48 31 26 20 17 358 30 15 8 353 358 358 5 10 5 17 12 35 16
203 200 160 98 126 172 122 88 89 270 336 298 338 339 60 264 263 321 353 234 285 262 244 249 252 239 220 223 222 218 214 206 191 196 211 210 213 215 216 208 210 182 168 173 178 176 165 162 161 158 159 150 146 134 115 119 140 146 144 139 114 172 147 105 71 54 69 57 64 27 56 59 66 51 52 59 42 39 39 39 25 17 12 351 29 6 355 353 2 6 2 3 9 1 357 30 30
275 153 84 63 76 77 99 88 74 338 59 288 304 348 200 284 280 327 341 262 266 247 232 235 236 231 223 219 227 225 225 227 226 222 212 214 213 211 214 206 175 197 181 165 156 150 161 160 163 163 170 162 157 136 124 124 136 139 128 144 142 149 76 60 74 67 59 50 77 38 46 61 67 70 41 29 42 27 40 29 34 14 350 346 27 344 349 355 355 4 357 349 10 2 337 351 32
140 74 69 6 35 40 18 67 81 57 20 261 240 324 109 300 250 204 155 218 199 226 288 270 275 268 256 244 224 208 211 218 221 225 234 232 235 223 176 182 189 166 172 160 162 168 167 171 171 173 183 167 160 154 142 150 152 150 155 160 159 154 153 106 87 70 52 51 74 15 49 87 61 83 48 22 11 3 21 24 27 353 352 357 354 354 354 339 337 343 343 356 8 4 330 348 17
100 65 90 51 340 7 37 342 36 86 284 256 287 317 358 178 294 278 235 271 208 166 197 205 222 230 231 226 229 219 208 210 217 217 231 226 153 151 174 187 174 179 164 179 179 174 177 178 173 176 189 181 173 161 155 162 160 169 166 163 162 173 161 147 144 170 182 152 177 140 269 78 36 93 60 27 349 329 10 359 347 357 343 341 334 322 328 334 322 338 354 1 0 349 344 3 24
64 60 39 92 275 33 307 13 337 211 206 188 353 5 31 238 224 227 272 238 252 223 191 194 202 218 226 228 224 220 212 208 206 213 211 199 187 182 196 204 182 180 193 190 189 186 184 181 182 178 195 190 181 167 170 174 171 184 181 170 173 165 168 152 163 170 188 163 185 181 171 152 264 64 270 121 284 295 312 337 336 344 335 325 313 321 314 324 328 337 354 360 0 0 330 10 37
55 88 125 71 33 36 272 276 233 302 301 254 302 298 252 253 288 243 244 243 221 216 221 211 188 202 211 218 221 223 226 209 206 207 211 201 198 198 193 190 193 197 199 196 193 190 190 189 190 189 198 187 182 176 174 174 191 191 183 175 169 156 161 159 168 165 187 176 180 184 194 196 201 203 202 204 232 245 275 261 293 285 286 296 302 306 313 315 335 331 353 5 335 303 342 328 345
131 186 120 164 135 161 269 263 302 242 245 274 286 51 239 39 219 216 237 264 292 257 246 246 248 229 222 230 231 244 240 233 217 207 209 208 208 198 195 195 197 199 198 197 197 198 190 195 192 199 194 196 186 187 177 183 193 196 189 177 166 157 155 157 168 169 172 176 191 186 202 203 200 206 198 219 222 240 254 256 255 250 289 291 298 303 312 321 316 344 6 337 318 297 312 313 327
250 165 99 57 57 150 70 214 167 292 337 338 255 210 190 195 288 294 313 310 291 344 314 17 245 234 228 214 219 224 225 229 225 222 221 224 214 204 201 200 203 199 198 197 199 196 197 202 198 200 198 190 190 186 190 187 194 190 189 179 182 168 160 155 162 171 186 179 190 186 200 205 209 197 221 214 232 230 248 247 248 254 262 281 287 280 281 298 319 352 31 338 315 319 315 319 288
270 80 28 179 152 94 95 72 44 80 51 257 213 314 303 295 344 338 343 8 272 325 284 279 263 272 311 234 229 228 228 231 233 229 225 223 223 220 206 203 204 201 197 199 201 197 199 196 195 203 202 195 194 194 189 190 188 186 196 191 183 178 167 170 176 184 185 194 185 195 187 203 197 201 212 201 211 224 228 229 234 260 268 275 285 284 272 267 262 96 143 300 325 299 318 290 285
12 58 212 128 158 126 126 263 335 57 100 265 36 266 309 22 299 331 338 324 277 275 264 257 275 280 265 245 236 229 228 226 229 238 243 236 221 210 210 211 204 199 200 202 206 202 200 196 194 195 195 197 204 193 191 188 187 193 193 195 191 186 182 185 180 183 189 181 197 192 195 195 211 209 201 202 193 212 226 243 230 251 259 268 280 281 275 263 206 176 214 228 245 274 291 301 285
137 159 167 113 270 18 336 91 7 348 335 298 313 288 247 191 260 337 287 233 250 246 246 269 261 253 245 246 246 247 248 259 252 241 238 242 235 227 212 211 211 209 205 203 203 195 195 200 200 195 199 201 195 193 190 191 191 192 193 193 190 190 188 185 187 186 185 191 195 197 195 206 210 216 213 201 199 210 215 233 223 242 249 267 275 277 264 255 209 193 219 229 263 263 269 269 266
47 8 14 349 100 149 59 110 171 119 276 27 295 25 277 211 223 198 252 228 237 245 247 238 235 231 233 235 240 241 241 235 237 234 232 228 228 227 217 210 208 207 206 207 198 191 199 200 193 202 207 197 190 194 190 193 197 192 196 191 195 190 189 186 186 184 192 198 201 197 204 200 208 208 212 208 209 209 213 218 225 225 241 245 256 268 252 243 237 208 219 235 259 254 268 264 271
339 39 348 351 51 214 111 22 88 214 192 178 244 330 288 268 215 180 231 237 227 208 220 232 235 236 233 233 232 235 235 236 235 231 230 227 226 228 231 227 220 212 205 196 193 196 202 192 199 197 195 195 199 199 192 199 188 198 191 195 196 192 195 190 189 192 195 203 200 200 202 203 203 218 212 213 216 217 214 212 216 226 228 236 238 255 240 221 222 242 251 246 253 261 263 261 276
146 155 193 175 107 76 56 283 9 63 63 245 106 272 272 275 172 214 237 256 251 243 226 235 240 241 236 236 237 230 236 238 233 231 226 228 229 230 234 238 244 214 205 200 204 197 197 198 201 197 197 200 198 199 198 195 194 194 196 197 197 196 193 192 195 199 205 205 202 201 199 197 205 219 212 221 220 223 215 214 216 229 227 227 227 223 225 197 212 218 264 258 259 263 261 260 250